Location: Street
(51.1247°N, 2.7429°W)
Time: 18:41:56
(UTC+00:00)

N. Korean satellite - Pass Details

Date: 30 October 2020
Orbit: 453 x 503 km, 97.2° (Epoch: 04 December)

Event Time Altitude Azimuth Distance (km) Brightness Sun altitude
Rises 05:37:30 0° 16° (NNE) 2,485 10.3 -13.5°
Reaches altitude 10° 05:39:34 10° 21° (NNE) 1,603 9.4 -13.2°
Maximum altitude 05:42:57 56° 101° (E) 547 7.2 -12.6°
Drops below altitude 10° 05:46:18 10° 180° (S) 1,589 9.3 -12.1°
Sets 05:48:21 0° 185° (S) 2,460 10.2 -11.8°
